Weather in Vizhas

Russia / Nenets Autonomous Okrug     66°38′22″N   45°53′10″E
temp.,
°C
wind,
m/s
gust,
m/s
humid.,
%
clouds,
%
prec.,
mm/h
press.,
hPa
HPBL,
m
27 february, sat
sat2700:00−14s6109598 0.3 1005368
03:00−14s6109499 0.7 1006363
06:00−14s61093100 0.2 1005300
09:00−14s7109498 0.3 1006321
12:00−13ssw7109496 0.4 1006346
15:00−12ssw7109498 1.1 1007325
18:00−12ssw479599 0.6 1006234
21:00−13sw349598 1.0 100736
28 february, sun
sun2800:00−15wsw239779 0.0 100720
03:00−14sw349558 0.0 100821
06:00−8sw469598 0.1 100799
09:00−7w469697 0.3 1008108
12:00−7w479596 0.3 1008202
15:00−9wsw459484 0.3 100961
18:00−11wsw569576 0.0 100983
21:00−8sw6109688 0.1 1009261
1 march, mon
mon100:00−6sw71293100 0.1 1007380
03:00−6sw91493100 0.3 1005402
06:00−5sw91592100 0.1 1000468
09:00−3ssw101696100 1.1 996557
12:000sw111697100 1.8 992643
15:00+1wnw71099100 3.2 992295
18:000wnw81196100 0.6 990507
21:00−5w569386 0.6 99080
2 march, tue
tue200:00−5wsw6109591 0.1 990166
03:00−7wsw699378 0.1 99094
06:00−8sw699425 0.0 988136
09:00−4wsw9139563 0.6 988398
12:00−2w101495100 0.4 988760
15:00−3wnw121791100 0.8 990863
18:00−5nw121986100 0.3 992803
21:00−6nw101882100 0.3 994593
3 march, wed
wed300:00−10wnw8148838 0.0 996210
03:00−10wnw7129219 0.0 998158
06:00−11wnw69930 0.0 998119
09:00−10w610956 0.0 998137
12:00−7wnw6109399 0.0 998286
15:00−7w6109299 0.1 998232
18:00−8w71295100 0.1 997202
21:00−10w6995100 0.1 997125